contact:dominique.lefevre@mio.osupytheas.fr, maurice.libes@osupytheas.fr, didier.mallarino@osupytheas.fr
Project:EMSO http://www.emso-fr.org/EMSO-France
Depth: 2436.0 m
Title:EMSO Ligure Ouest : Data MII capteur CSTAR
DateTime,Latitude,Longitude,Instrument_Serial,Reference_Counts,Signal_Counts,Corrected_Signal_raw_counts,Calculated_Beam_c_inverse_meters,Internal_thermistor_counts
DateTime,Latitude,Longitude,Instrument_Serial,Reference_Counts,Signal_Counts,Corrected_Signal_raw_counts,Calculated_Beam_c_inverse_meters,Internal_thermistor_counts
2022-12-02T00:02:20,42.805,6.029,CST-1368DR,4471,5107,12147,01.005,551
2022-12-02T00:05:21,42.805,6.029,CST-1368DR,4471,5109,12151,01.004,551
2022-12-02T00:08:23,42.805,6.029,CST-1368DR,4471,5108,12150,01.004,551
2022-12-02T00:11:24,42.805,6.029,CST-1368DR,4471,5109,12152,01.003,551
2022-12-02T00:14:26,42.805,6.029,CST-1368DR,4471,5111,12155,01.002,551
2022-12-02T00:17:28,42.805,6.029,CST-1368DR,4471,5110,12153,01.003,551
2022-12-02T00:20:29,42.805,6.029,CST-1368DR,4471,5108,12150,01.004,551
2022-12-02T00:23:31,42.805,6.029,CST-1368DR,4471,5109,12151,01.004,551
2022-12-02T00:26:32,42.805,6.029,CST-1368DR,4471,5111,12156,01.002,551
2022-12-02T00:29:34,42.805,6.029,CST-1368DR,4471,5109,12152,01.003,551
2022-12-02T00:32:35,42.805,6.029,CST-1368DR,4471,5107,12147,01.005,551
2022-12-02T00:35:37,42.805,6.029,CST-1368DR,4471,5108,12150,01.004,551
2022-12-02T00:38:39,42.805,6.029,CST-1368DR,4471,5115,12166,0.999,551
2022-12-02T00:41:40,42.805,6.029,CST-1368DR,4471,5114,12164,0.999,551
2022-12-02T00:44:42,42.805,6.029,CST-1368DR,4471,5115,12166,0.999,551
2022-12-02T00:47:43,42.805,6.029,CST-1368DR,4471,5112,12159,01.001,551
2022-12-02T00:50:45,42.805,6.029,CST-1368DR,4471,5109,12151,01.004,551
2022-12-02T00:53:46,42.805,6.029,CST-1368DR,4471,5109,12152,01.003,551
2022-12-02T00:56:48,42.805,6.029,CST-1368DR,4471,5110,12153,01.003,551
2022-12-02T00:59:50,42.805,6.029,CST-1368DR,4471,5108,12149,01.004,551
2022-12-02T01:02:51,42.805,6.029,CST-1368DR,4471,5110,12155,01.002,551
2022-12-02T01:05:53,42.805,6.029,CST-1368DR,4471,5108,12150,01.004,551
2022-12-02T01:08:54,42.805,6.029,CST-1368DR,4471,5108,12150,01.004,551
2022-12-02T01:11:56,42.805,6.029,CST-1368DR,4471,5110,12153,01.003,551
2022-12-02T01:14:58,42.805,6.029,CST-1368DR,4471,5109,12152,01.003,551
2022-12-02T01:17:59,42.805,6.029,CST-1368DR,4471,5109,12151,01.004,551
2022-12-02T01:21:01,42.805,6.029,CST-1368DR,4471,5108,12149,01.004,551
2022-12-02T01:24:02,42.805,6.029,CST-1368DR,4471,5107,12147,01.005,551
2022-12-02T01:27:04,42.805,6.029,CST-1368DR,4471,5109,12152,01.003,551
2022-12-02T01:30:05,42.805,6.029,CST-1368DR,4471,5108,12149,01.004,551
2022-12-02T01:33:07,42.805,6.029,CST-1368DR,4471,5109,12150,01.004,551
2022-12-02T01:36:09,42.805,6.029,CST-1368DR,4471,5108,12149,01.004,551
2022-12-02T01:39:10,42.805,6.029,CST-1368DR,4471,5107,12147,01.005,551
2022-12-02T01:42:12,42.805,6.029,CST-1368DR,4471,5109,12150,01.004,551
2022-12-02T01:45:13,42.805,6.029,CST-1368DR,4471,5107,12147,01.005,551
2022-12-02T01:48:15,42.805,6.029,CST-1368DR,4471,5111,12156,01.002,551
2022-12-02T01:51:16,42.805,6.029,CST-1368DR,4471,5109,12151,01.004,551
2022-12-02T01:54:18,42.805,6.029,CST-1368DR,4471,5107,12147,01.005,551
2022-12-02T01:57:20,42.805,6.029,CST-1368DR,4471,5114,12164,0.999,551
2022-12-02T02:00:21,42.805,6.029,CST-1368DR,4471,5109,12152,01.003,551
2022-12-02T02:03:23,42.805,6.029,CST-1368DR,4471,5108,12150,01.004,551
2022-12-02T02:06:24,42.805,6.029,CST-1368DR,4471,5109,12150,01.004,551
2022-12-02T02:09:26,42.805,6.029,CST-1368DR,4471,5108,12148,01.005,551
2022-12-02T02:12:28,42.805,6.029,CST-1368DR,4471,5116,12167,0.998,551
2022-12-02T02:15:29,42.805,6.029,CST-1368DR,4471,5111,12155,01.002,551
2022-12-02T02:18:31,42.805,6.029,CST-1368DR,4471,5111,12157,01.002,551
2022-12-02T02:21:32,42.805,6.029,CST-1368DR,4471,5111,12156,01.002,551
2022-12-02T02:24:34,42.805,6.029,CST-1368DR,4471,5111,12155,01.002,551
2022-12-02T02:27:35,42.805,6.029,CST-1368DR,4471,5110,12153,01.003,551
2022-12-02T02:30:37,42.805,6.029,CST-1368DR,4471,5108,12148,01.005,551
2022-12-02T02:33:39,42.805,6.029,CST-1368DR,4471,5108,12150,01.004,551
2022-12-02T02:36:40,42.805,6.029,CST-1368DR,4471,5109,12152,01.003,551
2022-12-02T02:39:42,42.805,6.029,CST-1368DR,4471,5109,12151,01.004,551
2022-12-02T02:42:43,42.805,6.029,CST-1368DR,4471,5117,12170,0.997,551
2022-12-02T02:45:45,42.805,6.029,CST-1368DR,4471,5117,12169,0.998,551
2022-12-02T02:48:47,42.805,6.029,CST-1368DR,4471,5111,12155,01.002,551
2022-12-02T02:51:48,42.805,6.029,CST-1368DR,4471,5116,12169,0.998,551
2022-12-02T02:54:50,42.805,6.029,CST-1368DR,4471,5116,12168,0.998,551
2022-12-02T02:57:51,42.805,6.029,CST-1368DR,4471,5116,12168,0.998,551
2022-12-02T03:00:53,42.805,6.029,CST-1368DR,4471,5112,12159,01.001,551
2022-12-02T03:03:54,42.805,6.029,CST-1368DR,4471,5110,12154,01.003,551
2022-12-02T03:06:56,42.805,6.029,CST-1368DR,4471,5111,12156,01.002,551
2022-12-02T03:09:58,42.805,6.029,CST-1368DR,4471,5109,12152,01.003,551
2022-12-02T03:12:59,42.805,6.029,CST-1368DR,4471,5108,12149,01.004,551
2022-12-02T03:16:01,42.805,6.029,CST-1368DR,4471,5108,12150,01.004,551
2022-12-02T03:19:02,42.805,6.029,CST-1368DR,4471,5109,12151,01.004,551
2022-12-02T03:22:04,42.805,6.029,CST-1368DR,4471,5109,12151,01.004,551
2022-12-02T03:25:05,42.805,6.029,CST-1368DR,4471,5110,12153,01.003,551
2022-12-02T03:28:07,42.805,6.029,CST-1368DR,4471,5107,12147,01.005,551
2022-12-02T03:31:09,42.805,6.029,CST-1368DR,4471,5109,12152,01.003,551
2022-12-02T03:34:10,42.805,6.029,CST-1368DR,4471,5109,12151,01.004,551
2022-12-02T03:37:12,42.805,6.029,CST-1368DR,4471,5109,12151,01.004,551
2022-12-02T03:40:13,42.805,6.029,CST-1368DR,4471,5118,12172,0.997,551
2022-12-02T03:43:15,42.805,6.029,CST-1368DR,4471,5118,12173,0.996,551
2022-12-02T03:46:16,42.805,6.029,CST-1368DR,4471,5115,12166,0.999,551
2022-12-02T03:49:18,42.805,6.029,CST-1368DR,4471,5117,12171,0.997,551
2022-12-02T03:52:20,42.805,6.029,CST-1368DR,4471,5117,12171,0.997,551
2022-12-02T03:55:21,42.805,6.029,CST-1368DR,4471,5117,12169,0.998,551
2022-12-02T03:58:23,42.805,6.029,CST-1368DR,4471,5114,12164,0.999,551
2022-12-02T04:01:24,42.805,6.029,CST-1368DR,4471,5111,12155,01.002,551
2022-12-02T04:04:26,42.805,6.029,CST-1368DR,4471,5110,12155,01.002,551
2022-12-02T04:07:28,42.805,6.029,CST-1368DR,4471,5109,12150,01.004,551
2022-12-02T04:10:29,42.805,6.029,CST-1368DR,4471,5117,12169,0.998,551
2022-12-02T04:13:31,42.805,6.029,CST-1368DR,4471,5112,12159,01.001,551
2022-12-02T04:16:32,42.805,6.029,CST-1368DR,4471,5110,12155,01.002,551
2022-12-02T04:19:34,42.805,6.029,CST-1368DR,4471,5111,12156,01.002,551
2022-12-02T04:22:35,42.805,6.029,CST-1368DR,4471,5111,12156,01.002,551
2022-12-02T04:25:37,42.805,6.029,CST-1368DR,4471,5111,12155,01.002,551
2022-12-02T04:28:39,42.805,6.029,CST-1368DR,4471,5110,12153,01.003,551
2022-12-02T04:31:40,42.805,6.029,CST-1368DR,4471,5107,12147,01.005,551
2022-12-02T04:34:42,42.805,6.029,CST-1368DR,4471,5115,12166,0.999,551
2022-12-02T04:37:43,42.805,6.029,CST-1368DR,4471,5110,12153,01.003,551
2022-12-02T04:40:45,42.805,6.029,CST-1368DR,4471,5115,12166,0.999,551
2022-12-02T04:43:46,42.805,6.029,CST-1368DR,4471,5116,12167,0.998,551
2022-12-02T04:46:48,42.805,6.029,CST-1368DR,4471,5112,12158,01.001,551
2022-12-02T04:49:50,42.805,6.029,CST-1368DR,4471,5108,12149,01.004,551
2022-12-02T04:52:51,42.805,6.029,CST-1368DR,4471,5108,12149,01.004,551
2022-12-02T04:55:53,42.805,6.029,CST-1368DR,4471,5108,12150,01.004,551
2022-12-02T04:58:54,42.805,6.029,CST-1368DR,4471,5108,12150,01.004,551
2022-12-02T05:01:56,42.805,6.029,CST-1368DR,4471,5109,12150,01.004,551
2022-12-02T05:04:58,42.805,6.029,CST-1368DR,4471,5115,12165,0.999,551
2022-12-02T05:07:59,42.805,6.029,CST-1368DR,4471,5114,12163,01.000,551
2022-12-02T05:11:01,42.805,6.029,CST-1368DR,4471,5115,12165,0.999,551
2022-12-02T05:14:02,42.805,6.029,CST-1368DR,4471,5110,12153,01.003,551
2022-12-02T05:17:04,42.805,6.029,CST-1368DR,4471,5111,12155,01.002,551
2022-12-02T05:20:05,42.805,6.029,CST-1368DR,4471,5109,12152,01.003,551
2022-12-02T05:23:07,42.805,6.029,CST-1368DR,4471,5107,12146,01.005,551
2022-12-02T05:26:09,42.805,6.029,CST-1368DR,4471,5107,12146,01.005,551
2022-12-02T05:29:10,42.805,6.029,CST-1368DR,4471,5116,12169,0.998,551
2022-12-02T05:32:12,42.805,6.029,CST-1368DR,4471,5115,12165,0.999,551
2022-12-02T05:35:13,42.805,6.029,CST-1368DR,4471,5112,12158,01.001,551
2022-12-02T05:38:15,42.805,6.029,CST-1368DR,4471,5107,12147,01.005,551
2022-12-02T05:41:16,42.805,6.029,CST-1368DR,4471,5114,12163,01.000,551
2022-12-02T05:44:18,42.805,6.029,CST-1368DR,4471,5115,12165,0.999,551
2022-12-02T05:47:20,42.805,6.029,CST-1368DR,4471,5113,12160,01.001,551
2022-12-02T05:50:21,42.805,6.029,CST-1368DR,4471,5116,12168,0.998,551
2022-12-02T05:53:23,42.805,6.029,CST-1368DR,4471,5115,12166,0.999,551
2022-12-02T05:56:24,42.805,6.029,CST-1368DR,4471,5114,12164,0.999,551
2022-12-02T05:59:26,42.805,6.029,CST-1368DR,4471,5114,12164,0.999,551
2022-12-02T06:02:28,42.805,6.029,CST-1368DR,4471,5111,12155,01.002,551
2022-12-02T06:05:29,42.805,6.029,CST-1368DR,4471,5116,12168,0.998,551
2022-12-02T06:08:31,42.805,6.029,CST-1368DR,4471,5115,12165,0.999,551
2022-12-02T06:11:32,42.805,6.029,CST-1368DR,4471,5108,12149,01.004,551
2022-12-02T06:14:34,42.805,6.029,CST-1368DR,4471,5108,12149,01.004,551
2022-12-02T06:17:35,42.805,6.029,CST-1368DR,4471,5114,12163,01.000,551
2022-12-02T06:20:37,42.805,6.029,CST-1368DR,4471,5107,12147,01.005,551
2022-12-02T06:23:39,42.805,6.029,CST-1368DR,4471,5116,12167,0.998,551
2022-12-02T06:26:40,42.805,6.029,CST-1368DR,4470,5114,12167,0.998,551
2022-12-02T06:29:42,42.805,6.029,CST-1368DR,4471,5108,12149,01.004,551
2022-12-02T06:32:43,42.805,6.029,CST-1368DR,4471,5115,12165,0.999,551
2022-12-02T06:35:45,42.805,6.029,CST-1368DR,4470,5108,12151,01.004,551
2022-12-02T06:38:46,42.805,6.029,CST-1368DR,4471,5108,12150,01.004,551
2022-12-02T06:41:48,42.805,6.029,CST-1368DR,4471,5108,12149,01.004,551
2022-12-02T06:44:50,42.805,6.029,CST-1368DR,4471,5107,12147,01.005,551
2022-12-02T06:47:51,42.805,6.029,CST-1368DR,4471,5106,12144,01.006,551
2022-12-02T06:50:53,42.805,6.029,CST-1368DR,4471,5105,12141,01.007,551
2022-12-02T06:53:54,42.805,6.029,CST-1368DR,4471,5114,12164,0.999,551
2022-12-02T06:56:56,42.805,6.029,CST-1368DR,4471,5113,12162,01.000,551
2022-12-02T06:59:57,42.805,6.029,CST-1368DR,4471,5114,12164,0.999,551
2022-12-02T07:02:59,42.805,6.029,CST-1368DR,4471,5114,12163,01.000,551
2022-12-02T07:06:01,42.805,6.029,CST-1368DR,4471,5107,12146,01.005,551
2022-12-02T07:09:02,42.805,6.029,CST-1368DR,4471,5106,12144,01.006,551
2022-12-02T07:12:04,42.805,6.029,CST-1368DR,4471,5115,12165,0.999,551
2022-12-02T07:15:05,42.805,6.029,CST-1368DR,4471,5111,12156,01.002,551
2022-12-02T07:18:07,42.805,6.029,CST-1368DR,4471,5108,12148,01.005,551
2022-12-02T07:21:09,42.805,6.029,CST-1368DR,4471,5109,12150,01.004,551
2022-12-02T07:24:10,42.805,6.029,CST-1368DR,4471,5107,12146,01.005,551
2022-12-02T07:27:12,42.805,6.029,CST-1368DR,4471,5107,12146,01.005,551
2022-12-02T07:30:13,42.805,6.029,CST-1368DR,4471,5107,12146,01.005,551
2022-12-02T07:33:15,42.805,6.029,CST-1368DR,4471,5107,12146,01.005,551
2022-12-02T07:36:16,42.805,6.029,CST-1368DR,4470,5107,12148,01.005,551
2022-12-02T07:39:18,42.805,6.029,CST-1368DR,4470,5108,12151,01.004,551
2022-12-02T07:42:20,42.805,6.029,CST-1368DR,4470,5107,12149,01.004,551
2022-12-02T07:45:21,42.805,6.029,CST-1368DR,4470,5106,12148,01.005,551
2022-12-02T07:48:23,42.805,6.029,CST-1368DR,4470,5106,12147,01.005,551
2022-12-02T07:51:24,42.805,6.029,CST-1368DR,4471,5107,12147,01.005,551
2022-12-02T07:54:26,42.805,6.029,CST-1368DR,4470,5108,12151,01.004,551
2022-12-02T07:57:27,42.805,6.029,CST-1368DR,4470,5107,12148,01.005,551
2022-12-02T08:00:29,42.805,6.029,CST-1368DR,4470,5106,12146,01.005,551
2022-12-02T08:03:31,42.805,6.029,CST-1368DR,4470,5108,12151,01.004,551
2022-12-02T08:06:32,42.805,6.029,CST-1368DR,4470,5115,12168,0.998,551
2022-12-02T08:09:34,42.805,6.029,CST-1368DR,4470,5114,12167,0.998,551
2022-12-02T08:12:35,42.805,6.029,CST-1368DR,4470,5114,12166,0.999,551
2022-12-02T08:15:37,42.805,6.029,CST-1368DR,4471,5114,12164,0.999,551
2022-12-02T08:18:39,42.805,6.029,CST-1368DR,4470,5115,12169,0.998,551
2022-12-02T08:21:40,42.805,6.029,CST-1368DR,4470,5115,12169,0.998,551
2022-12-02T08:24:42,42.805,6.029,CST-1368DR,4470,5114,12167,0.998,551
2022-12-02T08:27:43,42.805,6.029,CST-1368DR,4470,5115,12167,0.998,551
2022-12-02T08:30:45,42.805,6.029,CST-1368DR,4470,5112,12160,01.001,551
2022-12-02T08:33:46,42.805,6.029,CST-1368DR,4470,5109,12155,01.002,551
2022-12-02T08:36:48,42.805,6.029,CST-1368DR,4470,5111,12160,01.001,551
2022-12-02T08:39:50,42.805,6.029,CST-1368DR,4470,5108,12151,01.004,551
2022-12-02T08:42:51,42.805,6.029,CST-1368DR,4470,5109,12155,01.002,551
2022-12-02T08:45:53,42.805,6.029,CST-1368DR,4470,5115,12168,0.998,551
2022-12-02T08:48:54,42.805,6.029,CST-1368DR,4470,5107,12149,01.004,551
2022-12-02T08:51:56,42.805,6.029,CST-1368DR,4470,5108,12151,01.004,551
2022-12-02T08:54:57,42.805,6.029,CST-1368DR,4470,5107,12150,01.004,551
2022-12-02T08:57:59,42.805,6.029,CST-1368DR,4470,5108,12151,01.004,551
2022-12-02T09:01:01,42.805,6.029,CST-1368DR,4470,5108,12151,01.004,551
2022-12-02T09:04:02,42.805,6.029,CST-1368DR,4470,5107,12148,01.005,551
2022-12-02T09:07:04,42.805,6.029,CST-1368DR,4470,5107,12148,01.005,551
2022-12-02T09:10:05,42.805,6.029,CST-1368DR,4470,5106,12146,01.005,551
2022-12-02T09:13:07,42.805,6.029,CST-1368DR,4470,5106,12146,01.005,551
2022-12-02T09:16:08,42.805,6.029,CST-1368DR,4470,5107,12149,01.004,551
2022-12-02T09:19:10,42.805,6.029,CST-1368DR,4470,5107,12149,01.004,551
2022-12-02T09:22:12,42.805,6.029,CST-1368DR,4470,5105,12145,01.006,551
2022-12-02T09:25:13,42.805,6.029,CST-1368DR,4470,5105,12145,01.006,551
2022-12-02T09:28:15,42.805,6.029,CST-1368DR,4470,5105,12145,01.006,551
2022-12-02T09:31:16,42.805,6.029,CST-1368DR,4470,5105,12145,01.006,551
2022-12-02T09:34:18,42.805,6.029,CST-1368DR,4470,5105,12145,01.006,551
2022-12-02T09:37:20,42.805,6.029,CST-1368DR,4470,5106,12148,01.005,551
2022-12-02T09:40:21,42.805,6.029,CST-1368DR,4470,5104,12142,01.007,551
2022-12-02T09:43:23,42.805,6.029,CST-1368DR,4470,5105,12145,01.006,551
2022-12-02T09:46:24,42.805,6.029,CST-1368DR,4470,5105,12145,01.006,551
2022-12-02T09:49:26,42.805,6.029,CST-1368DR,4470,5107,12148,01.005,551
2022-12-02T09:52:27,42.805,6.029,CST-1368DR,4470,5106,12146,01.005,551
2022-12-02T09:55:29,42.805,6.029,CST-1368DR,4470,5105,12144,01.006,551
2022-12-02T09:58:31,42.805,6.029,CST-1368DR,4470,5104,12142,01.007,551
2022-12-02T10:01:32,42.805,6.029,CST-1368DR,4470,5104,12142,01.007,551
2022-12-02T10:04:34,42.805,6.029,CST-1368DR,4470,5106,12146,01.005,551
2022-12-02T10:07:35,42.805,6.029,CST-1368DR,4470,5105,12143,01.006,551
2022-12-02T10:10:37,42.805,6.029,CST-1368DR,4470,5107,12149,01.004,551
2022-12-02T10:13:38,42.805,6.029,CST-1368DR,4470,5106,12146,01.005,551
2022-12-02T10:16:40,42.805,6.029,CST-1368DR,4470,5105,12145,01.006,551
2022-12-02T10:19:41,42.805,6.029,CST-1368DR,4470,5105,12144,01.006,551
2022-12-02T10:22:43,42.805,6.029,CST-1368DR,4470,5104,12142,01.007,551
2022-12-02T10:25:45,42.805,6.029,CST-1368DR,4470,5105,12145,01.006,551
2022-12-02T10:28:46,42.805,6.029,CST-1368DR,4470,5106,12147,01.005,551
2022-12-02T10:31:48,42.805,6.029,CST-1368DR,4470,5105,12144,01.006,551
2022-12-02T10:34:49,42.805,6.029,CST-1368DR,4470,5105,12145,01.006,551
2022-12-02T10:37:51,42.805,6.029,CST-1368DR,4470,5105,12143,01.006,551
2022-12-02T10:40:53,42.805,6.029,CST-1368DR,4470,5105,12145,01.006,551
2022-12-02T10:43:54,42.805,6.029,CST-1368DR,4470,5107,12149,01.004,551
2022-12-02T10:46:56,42.805,6.029,CST-1368DR,4470,5106,12147,01.005,551
2022-12-02T10:49:57,42.805,6.029,CST-1368DR,4470,5105,12144,01.006,551
2022-12-02T10:52:59,42.805,6.029,CST-1368DR,4470,5104,12141,01.007,551
2022-12-02T10:56:00,42.805,6.029,CST-1368DR,4470,5113,12163,01.000,551
2022-12-02T10:59:02,42.805,6.029,CST-1368DR,4470,5105,12143,01.006,551
2022-12-02T11:02:04,42.805,6.029,CST-1368DR,4470,5106,12146,01.005,551
2022-12-02T11:05:05,42.805,6.029,CST-1368DR,4470,5106,12146,01.005,551
2022-12-02T11:08:07,42.805,6.029,CST-1368DR,4470,5104,12142,01.007,551
2022-12-02T11:11:08,42.805,6.029,CST-1368DR,4470,5105,12145,01.006,551
2022-12-02T11:14:10,42.805,6.029,CST-1368DR,4470,5105,12143,01.006,551
2022-12-02T11:17:11,42.805,6.029,CST-1368DR,4470,5105,12144,01.006,551
2022-12-02T11:20:13,42.805,6.029,CST-1368DR,4470,5105,12145,01.006,551
2022-12-02T11:23:15,42.805,6.029,CST-1368DR,4470,5105,12144,01.006,551
2022-12-02T11:26:16,42.805,6.029,CST-1368DR,4470,5104,12142,01.007,551
2022-12-02T11:29:18,42.805,6.029,CST-1368DR,4470,5104,12142,01.007,551
2022-12-02T11:32:19,42.805,6.029,CST-1368DR,4470,5103,12139,01.007,551
2022-12-02T11:35:21,42.805,6.029,CST-1368DR,4470,5104,12143,01.006,551
2022-12-02T11:38:22,42.805,6.029,CST-1368DR,4470,5104,12143,01.006,551
2022-12-02T11:41:24,42.805,6.029,CST-1368DR,4470,5104,12142,01.007,551
2022-12-02T11:44:26,42.805,6.029,CST-1368DR,4470,5103,12139,01.007,551
2022-12-02T11:47:27,42.805,6.029,CST-1368DR,4470,5104,12141,01.007,551
2022-12-02T11:50:29,42.805,6.029,CST-1368DR,4470,5104,12142,01.007,551
2022-12-02T11:53:30,42.805,6.029,CST-1368DR,4470,5105,12145,01.006,551
2022-12-02T11:56:32,42.805,6.029,CST-1368DR,4470,5104,12142,01.007,551
2022-12-02T11:59:33,42.805,6.029,CST-1368DR,4470,5103,12140,01.007,551
2022-12-02T12:02:35,42.805,6.029,CST-1368DR,4470,5103,12139,01.007,551
2022-12-02T12:05:37,42.805,6.029,CST-1368DR,4470,5104,12142,01.007,551
2022-12-02T12:08:38,42.805,6.029,CST-1368DR,4470,5102,12137,01.008,551
2022-12-02T12:11:40,42.805,6.029,CST-1368DR,4470,5103,12140,01.007,551
2022-12-02T12:14:41,42.805,6.029,CST-1368DR,4470,5102,12137,01.008,551
2022-12-02T12:17:43,42.805,6.029,CST-1368DR,4470,5103,12140,01.007,551
2022-12-02T12:20:44,42.805,6.029,CST-1368DR,4470,5104,12141,01.007,551
2022-12-02T12:23:46,42.805,6.029,CST-1368DR,4470,5103,12140,01.007,551
2022-12-02T12:26:48,42.805,6.029,CST-1368DR,4470,5104,12142,01.007,551
2022-12-02T12:29:49,42.805,6.029,CST-1368DR,4470,5103,12139,01.007,551
2022-12-02T12:32:51,42.805,6.029,CST-1368DR,4470,5102,12136,01.008,551
2022-12-02T12:35:52,42.805,6.029,CST-1368DR,4470,5101,12136,01.008,551
2022-12-02T12:38:54,42.805,6.029,CST-1368DR,4470,5104,12142,01.007,551
2022-12-02T12:41:55,42.805,6.029,CST-1368DR,4470,5104,12143,01.006,551
2022-12-02T12:44:57,42.805,6.029,CST-1368DR,4470,5102,12136,01.008,550
2022-12-02T12:47:59,42.805,6.029,CST-1368DR,4470,5103,12140,01.007,551
2022-12-02T12:51:00,42.805,6.029,CST-1368DR,4470,5102,12137,01.008,551
2022-12-02T12:54:02,42.805,6.029,CST-1368DR,4470,5102,12136,01.008,551
2022-12-02T12:57:03,42.805,6.029,CST-1368DR,4470,5108,12151,01.004,551
2022-12-02T13:00:05,42.805,6.029,CST-1368DR,4470,5103,12140,01.007,551
2022-12-02T13:03:06,42.805,6.029,CST-1368DR,4470,5102,12137,01.008,551
2022-12-02T13:06:08,42.805,6.029,CST-1368DR,4470,5101,12136,01.008,551
2022-12-02T13:09:10,42.805,6.029,CST-1368DR,4470,5101,12136,01.008,551
2022-12-02T13:12:11,42.805,6.029,CST-1368DR,4470,5101,12135,01.009,551
2022-12-02T13:15:13,42.805,6.029,CST-1368DR,4470,5102,12136,01.008,551
2022-12-02T13:18:14,42.805,6.029,CST-1368DR,4470,5103,12139,01.007,551
2022-12-02T13:21:16,42.805,6.029,CST-1368DR,4470,5101,12135,01.009,551
2022-12-02T13:24:18,42.805,6.029,CST-1368DR,4470,5102,12136,01.008,551
2022-12-02T13:27:19,42.805,6.029,CST-1368DR,4470,5102,12137,01.008,551
2022-12-02T13:30:21,42.805,6.029,CST-1368DR,4470,5101,12136,01.008,551
2022-12-02T13:33:22,42.805,6.029,CST-1368DR,4470,5101,12134,01.009,551
2022-12-02T13:36:24,42.805,6.029,CST-1368DR,4470,5103,12140,01.007,551
2022-12-02T13:39:25,42.805,6.029,CST-1368DR,4470,5101,12136,01.008,551
2022-12-02T13:42:27,42.805,6.029,CST-1368DR,4470,5102,12137,01.008,551
2022-12-02T13:45:29,42.805,6.029,CST-1368DR,4470,5101,12135,01.009,551
2022-12-02T13:48:30,42.805,6.029,CST-1368DR,4470,5103,12139,01.007,551
2022-12-02T13:51:32,42.805,6.029,CST-1368DR,4470,5100,12133,01.009,551
2022-12-02T13:54:33,42.805,6.029,CST-1368DR,4470,5102,12136,01.008,551
2022-12-02T13:57:35,42.805,6.029,CST-1368DR,4470,5100,12132,01.010,551
2022-12-02T14:00:36,42.805,6.029,CST-1368DR,4470,5100,12132,01.010,551
2022-12-02T14:03:38,42.805,6.029,CST-1368DR,4470,5100,12132,01.010,551
2022-12-02T14:06:40,42.805,6.029,CST-1368DR,4470,5101,12134,01.009,551
2022-12-02T14:09:41,42.805,6.029,CST-1368DR,4470,5101,12134,01.009,551
2022-12-02T14:12:43,42.805,6.029,CST-1368DR,4470,5100,12133,01.009,551
2022-12-02T14:15:44,42.805,6.029,CST-1368DR,4470,5100,12132,01.010,551
2022-12-02T14:18:46,42.805,6.029,CST-1368DR,4470,5101,12135,01.009,551
2022-12-02T14:21:47,42.805,6.029,CST-1368DR,4470,5100,12133,01.009,551
2022-12-02T14:24:49,42.805,6.029,CST-1368DR,4470,5103,12139,01.007,551
2022-12-02T14:27:51,42.805,6.029,CST-1368DR,4470,5099,12130,01.010,551
2022-12-02T14:30:52,42.805,6.029,CST-1368DR,4470,5100,12132,01.010,551
2022-12-02T14:33:54,42.805,6.029,CST-1368DR,4470,5100,12132,01.010,551
2022-12-02T14:36:55,42.805,6.029,CST-1368DR,4470,5101,12136,01.008,551
2022-12-02T14:39:57,42.805,6.029,CST-1368DR,4469,5099,12134,01.009,551
2022-12-02T14:42:59,42.805,6.029,CST-1368DR,4470,5101,12135,01.009,551
2022-12-02T14:46:00,42.805,6.029,CST-1368DR,4470,5100,12133,01.009,551
2022-12-02T14:49:02,42.805,6.029,CST-1368DR,4469,5101,12138,01.008,551
2022-12-02T14:52:03,42.805,6.029,CST-1368DR,4470,5102,12136,01.008,551
2022-12-02T14:55:05,42.805,6.029,CST-1368DR,4470,5100,12133,01.009,551
2022-12-02T14:58:06,42.805,6.029,CST-1368DR,4470,5102,12137,01.008,551
2022-12-02T15:01:08,42.805,6.029,CST-1368DR,4470,5101,12136,01.008,551
2022-12-02T15:04:10,42.805,6.029,CST-1368DR,4470,5101,12135,01.009,551
2022-12-02T15:07:11,42.805,6.029,CST-1368DR,4470,5100,12133,01.009,551
2022-12-02T15:10:13,42.805,6.029,CST-1368DR,4470,5111,12159,01.001,551
2022-12-02T15:13:14,42.805,6.029,CST-1368DR,4470,5103,12139,01.007,551
2022-12-02T15:16:16,42.805,6.029,CST-1368DR,4469,5101,12138,01.008,551
2022-12-02T15:19:17,42.805,6.029,CST-1368DR,4470,5101,12135,01.009,551
2022-12-02T15:22:19,42.805,6.029,CST-1368DR,4470,5101,12135,01.009,551
2022-12-02T15:25:21,42.805,6.029,CST-1368DR,4470,5103,12139,01.007,551
2022-12-02T15:28:22,42.805,6.029,CST-1368DR,4470,5103,12139,01.007,551
2022-12-02T15:31:24,42.805,6.029,CST-1368DR,4470,5100,12133,01.009,551
2022-12-02T15:34:25,42.805,6.029,CST-1368DR,4470,5103,12140,01.007,551
2022-12-02T15:37:27,42.805,6.029,CST-1368DR,4470,5102,12137,01.008,551
2022-12-02T15:40:28,42.805,6.029,CST-1368DR,4470,5103,12140,01.007,551
2022-12-02T15:43:30,42.805,6.029,CST-1368DR,4470,5103,12140,01.007,551
2022-12-02T15:46:32,42.805,6.029,CST-1368DR,4470,5101,12136,01.008,551
2022-12-02T15:49:33,42.805,6.029,CST-1368DR,4470,5103,12140,01.007,551
2022-12-02T15:52:35,42.805,6.029,CST-1368DR,4470,5104,12142,01.007,551
2022-12-02T15:55:36,42.805,6.029,CST-1368DR,4470,5103,12140,01.007,551
2022-12-02T15:58:38,42.805,6.029,CST-1368DR,4470,5113,12164,0.999,551
2022-12-02T16:01:39,42.805,6.029,CST-1368DR,4470,5105,12144,01.006,551
2022-12-02T16:04:41,42.805,6.029,CST-1368DR,4470,5102,12137,01.008,551
2022-12-02T16:07:43,42.805,6.029,CST-1368DR,4470,5104,12142,01.007,551
2022-12-02T16:10:44,42.805,6.029,CST-1368DR,4470,5105,12143,01.006,551
2022-12-02T16:13:46,42.805,6.029,CST-1368DR,4470,5104,12141,01.007,551
2022-12-02T16:16:47,42.805,6.029,CST-1368DR,4470,5103,12140,01.007,551
2022-12-02T16:19:49,42.805,6.029,CST-1368DR,4470,5104,12142,01.007,551
2022-12-02T16:22:51,42.805,6.029,CST-1368DR,4470,5104,12143,01.006,551
2022-12-02T16:25:52,42.805,6.029,CST-1368DR,4470,5105,12144,01.006,551
2022-12-02T16:28:54,42.805,6.029,CST-1368DR,4470,5104,12141,01.007,551
2022-12-02T16:31:55,42.805,6.029,CST-1368DR,4470,5103,12140,01.007,551
2022-12-02T16:34:57,42.805,6.029,CST-1368DR,4470,5105,12145,01.006,551
2022-12-02T16:37:58,42.805,6.029,CST-1368DR,4470,5104,12142,01.007,551